KLM743 EHAM-SPJC

Flight info

Callsign KLM743
Flight time N/A
Altitude 30000
Route IDRID L980 MANGO L620 SAM/N0493F310 M195 LORKU DCT EBOMO DCT KORUL DCT RIPEL DCT GUNTI/M085F320 DCT 35N020W 32N025W 29N030W/M085F340 23N040W 19N045W DCT QUETN/N0505F340 DCT 14N050W 10N055W/N0495F360 DCT TRAPP UM527 AKTOR/N0488F380 UM527 VADOS
Aircraft B77W/H-SDE1E2E3FGHIJ2J3J4J5M1RWXY/LB1D1

Departure

Time 2026-04-17 22:20
Airport Amsterdam Airport Schiphol (EHAM)

Arrival

Time N/A
Airport Jorge Chávez International Airport (SPJC)
Time Latitude Longitude Altitude Speed Heading
2026-04-17 21:34 52.31234 4.75828 3 ft 0 kts 266°
2026-04-17 22:09 52.31235 4.75850 3 ft 2 kts 267°
2026-04-17 22:09 52.31236 4.75874 2 ft 2 kts 266°
2026-04-17 22:09 52.31236 4.75899 2 ft 2 kts 280°
2026-04-17 22:09 52.31231 4.75922 2 ft 2 kts 304°
2026-04-17 22:10 52.31221 4.75940 2 ft 2 kts 324°
2026-04-17 22:10 52.31209 4.75951 2 ft 1 kts 344°
2026-04-17 22:10 52.31204 4.75953 2 ft 0 kts 347°
2026-04-17 22:12 52.31221 4.75947 2 ft 5 kts 349°
2026-04-17 22:13 52.31276 4.75936 2 ft 9 kts 354°
2026-04-17 22:13 52.31355 4.75927 2 ft 13 kts 357°
2026-04-17 22:13 52.31451 4.75919 2 ft 10 kts 357°
2026-04-17 22:13 52.31513 4.75946 3 ft 9 kts 52°
2026-04-17 22:14 52.31532 4.76052 2 ft 10 kts 84°
2026-04-17 22:14 52.31538 4.76169 2 ft 10 kts 86°
2026-04-17 22:14 52.31542 4.76295 2 ft 11 kts 87°
2026-04-17 22:14 52.31546 4.76428 2 ft 11 kts 86°
2026-04-17 22:15 52.31552 4.76565 2 ft 12 kts 86°
2026-04-17 22:15 52.31556 4.76710 2 ft 13 kts 87°
2026-04-17 22:15 52.31561 4.76862 2 ft 13 kts 86°
2026-04-17 22:15 52.31567 4.77018 2 ft 14 kts 86°
2026-04-17 22:16 52.31573 4.77178 2 ft 14 kts 86°
2026-04-17 22:16 52.31578 4.77345 2 ft 15 kts 90°
2026-04-17 22:16 52.31543 4.77505 2 ft 15 kts 127°
2026-04-17 22:16 52.31463 4.77623 2 ft 15 kts 152°
2026-04-17 22:17 52.31353 4.77652 2 ft 16 kts 182°
2026-04-17 22:17 52.31238 4.77642 2 ft 16 kts 183°
2026-04-17 22:17 52.31123 4.77631 2 ft 16 kts 183°
2026-04-17 22:17 52.31002 4.77620 2 ft 17 kts 183°
2026-04-17 22:18 52.30883 4.77609 2 ft 17 kts 183°
2026-04-17 22:18 52.30761 4.77599 2 ft 17 kts 183°
2026-04-17 22:18 52.30660 4.77587 2 ft 12 kts 191°
2026-04-17 22:18 52.30582 4.77553 2 ft 11 kts 181°
2026-04-17 22:19 52.30506 4.77599 2 ft 12 kts 152°
2026-04-17 22:19 52.30425 4.77622 2 ft 12 kts 208°
2026-04-17 22:19 52.30368 4.77517 2 ft 12 kts 237°
2026-04-17 22:19 52.30309 4.77366 2 ft 35 kts 238°
2026-04-17 22:20 52.30058 4.76711 2 ft 99 kts 238°
2026-04-17 22:20 52.29581 4.75472 2 ft 157 kts 238°
2026-04-17 22:20 52.28918 4.73735 179 ft 190 kts 238°
2026-04-17 22:20 52.28248 4.71972 937 ft 184 kts 238°
2026-04-17 22:21 52.27545 4.70203 1390 ft 191 kts 232°
2026-04-17 22:21 52.26599 4.68619 1779 ft 199 kts 224°
2026-04-17 22:21 52.25570 4.67016 2176 ft 209 kts 225°
2026-04-17 22:21 52.24540 4.65271 2542 ft 221 kts 234°
2026-04-17 22:22 52.23813 4.62920 2759 ft 242 kts 252°
2026-04-17 22:22 52.23327 4.60293 3317 ft 249 kts 252°
2026-04-17 22:22 52.22802 4.57549 3887 ft 256 kts 251°
2026-04-17 22:22 52.22239 4.54817 4642 ft 256 kts 250°
2026-04-17 22:23 52.21669 4.52109 5325 ft 258 kts 250°
2026-04-17 22:23 52.21084 4.49325 5986 ft 261 kts 250°
2026-04-17 22:23 52.20501 4.46553 6645 ft 263 kts 250°
2026-04-17 22:23 52.19904 4.43718 7288 ft 265 kts 251°
2026-04-17 22:24 52.19300 4.40852 7890 ft 270 kts 251°
2026-04-17 22:24 52.18696 4.37993 8489 ft 272 kts 251°
2026-04-17 22:24 52.18073 4.35048 9102 ft 275 kts 251°
2026-04-17 22:24 52.17448 4.32093 9702 ft 277 kts 250°
2026-04-17 22:25 52.16815 4.29108 10309 ft 279 kts 250°
2026-04-17 22:25 52.16172 4.26079 10640 ft 292 kts 250°
2026-04-17 22:25 52.15493 4.22888 10884 ft 308 kts 250°
2026-04-17 22:25 52.14768 4.19485 11170 ft 324 kts 250°
2026-04-17 22:26 52.14018 4.15970 11444 ft 339 kts 250°
2026-04-17 22:26 52.13222 4.12243 11784 ft 354 kts 250°
2026-04-17 22:26 52.12401 4.08410 12123 ft 367 kts 250°
2026-04-17 22:26 52.11555 4.04468 12636 ft 376 kts 250°
2026-04-17 22:27 52.10694 4.00464 13348 ft 378 kts 250°
2026-04-17 22:27 52.09821 3.96409 14040 ft 381 kts 250°
2026-04-17 22:27 52.08945 3.92350 14740 ft 384 kts 250°
2026-04-17 22:27 52.08068 3.88297 15429 ft 386 kts 250°
2026-04-17 22:28 52.07173 3.84165 16115 ft 387 kts 250°
2026-04-17 22:28 52.06279 3.80048 16758 ft 390 kts 250°
2026-04-17 22:28 52.05379 3.75911 17383 ft 393 kts 250°
2026-04-17 22:28 52.04464 3.71711 18038 ft 394 kts 250°
2026-04-17 22:29 52.03552 3.67536 18694 ft 396 kts 250°
2026-04-17 22:29 52.02628 3.63315 19291 ft 398 kts 250°
2026-04-17 22:29 52.01701 3.59088 19832 ft 402 kts 250°
2026-04-17 22:29 52.00766 3.54832 20398 ft 405 kts 250°
2026-04-17 22:30 51.99698 3.50566 20939 ft 407 kts 243°
2026-04-17 22:30 51.98264 3.46659 21465 ft 409 kts 236°
2026-04-17 22:30 51.96606 3.42933 21976 ft 412 kts 234°
2026-04-17 22:30 51.94900 3.39159 22520 ft 414 kts 234°
2026-04-17 22:31 51.93201 3.35406 23027 ft 417 kts 234°
2026-04-17 22:31 51.91491 3.31635 23536 ft 419 kts 233°
2026-04-17 22:31 51.89749 3.27797 24052 ft 421 kts 233°
2026-04-17 22:31 51.88030 3.24012 24574 ft 422 kts 234°
2026-04-17 22:32 51.86479 3.19950 25048 ft 425 kts 242°
2026-04-17 22:32 51.85300 3.15549 25494 ft 429 kts 250°
2026-04-17 22:32 51.84538 3.10972 25982 ft 432 kts 257°
2026-04-17 22:32 51.84137 3.06109 26435 ft 435 kts 262°
2026-04-17 22:33 51.83838 3.01294 26798 ft 439 kts 262°
2026-04-17 22:33 51.83530 2.96361 27178 ft 443 kts 262°
2026-04-17 22:33 51.83215 2.91408 27582 ft 446 kts 262°
2026-04-17 22:33 51.82892 2.86422 28059 ft 447 kts 262°
2026-04-17 22:34 51.82563 2.81411 28537 ft 448 kts 262°
2026-04-17 22:34 51.82234 2.76455 28931 ft 450 kts 262°
2026-04-17 22:34 51.81895 2.71403 29300 ft 453 kts 262°
2026-04-17 22:34 51.81554 2.66352 29742 ft 454 kts 262°
2026-04-17 22:35 51.81207 2.61276 30148 ft 455 kts 261°
2026-04-17 22:35 51.80509 2.51183 30170 ft 450 kts 261°